This is the latest recevied weather packets stored in our database for station/object K4DNM. If no packets are shown the sender has not sent any weather packets the latest 10 day(s).
| Time | Temp. | Humidity | Pressure | Rain* | Wind** | Luminosity | Snow |
|---|---|---|---|---|---|---|---|
| 1778168503 | 19.44° C | 99% | 1007.8 hPa | 5.08 mm | - | 125 W/m² | - |
| 1778168206 | 19.44° C | 99% | 1007.9 hPa | 5.08 mm | - | 122 W/m² | - |
| 1778167903 | 19.44° C | 99% | 1008.1 hPa | 5.08 mm | - | 86 W/m² | - |
| 1778167602 | 19.44° C | 99% | 1008.1 hPa | 5.08 mm | - | 94 W/m² | - |
| 1778167302 | 19.44° C | 99% | 1008.1 hPa | 5.08 mm | - | 85 W/m² | - |
| 1778167002 | 19.44° C | 99% | 1008.2 hPa | 4.83 mm | - | 55 W/m² | - |
| 1778166702 | 19.44° C | 99% | 1008.3 hPa | 4.32 mm | - | 45 W/m² | - |
| 1778166404 | 19.44° C | 99% | 1008.5 hPa | 4.06 mm | - | 39 W/m² | - |
| 1778166104 | 19.44° C | 99% | 1008.7 hPa | 3.3 mm | - | 42 W/m² | - |
| 1778165864 | 19.44° C | 99% | 1008.6 hPa | 2.79 mm | - | 49 W/m² | - |
| 1778165493 | 19.44° C | 100% | 1008.6 hPa | 2.29 mm | - | 47 W/m² | - |
| 1778165192 | 20° C | 100% | 1008.6 hPa | 1.52 mm | - | 50 W/m² | - |
| 1778164893 | 20° C | 100% | 1008.6 hPa | 1.02 mm | - | 40 W/m² | - |
| 1778164593 | 20° C | 100% | 1008.5 hPa | 0.51 mm | - | 38 W/m² | - |
| 1778164289 | 20° C | 100% | 1008.6 hPa | 0.25 mm | - | 48 W/m² | - |
| 1778163989 | 20° C | 100% | 1008.5 hPa | 0 mm | - | 54 W/m² | - |
| 1778163690 | 20° C | 100% | 1008.5 hPa | 0 mm | - | 57 W/m² | - |
| 1778163390 | 20° C | 100% | 1008.5 hPa | 0 mm | - | 53 W/m² | - |
| 1778163090 | 20° C | 100% | 1008.5 hPa | 0 mm | - | 49 W/m² | - |
| 1778162850 | 20° C | 100% | 1008.5 hPa | 0 mm | - | 50 W/m² | - |
| 1778162489 | 20° C | 100% | 1008.7 hPa | 0 mm | - | 61 W/m² | - |
| 1778162174 | 20° C | 100% | 1009 hPa | 0 mm | - | 54 W/m² | - |
| 1778161876 | 20° C | 100% | 1008.8 hPa | 0 mm | - | 42 W/m² | - |
| 1778161577 | 20° C | 100% | 1008.7 hPa | 0 mm | - | 48 W/m² | - |
| 1778161276 | 20° C | 100% | 1008.5 hPa | 0 mm | - | 49 W/m² | - |
* Rain latest hour (hover to see other rain measurements)
** Current wind speed in m/s (hover to see current wind gust speed)